| time (UTC) | temp F | wind direction | speed knots | gust knots | rain 1hr in | rain 24hr in | rain mn in | humidity % | barometer mb |
| 20260506051000 | 65 | 163 | 3.5 | 10.4 | 0.00 | 0.00 | 0.00 | 63 | 1007.3 |
| 20260506050454 | 65 | 218 | 4.3 | 11.3 | 0.00 | 0.00 | 0.00 | 62 | 1007.5 |
| 20260506044938 | 65 | 177 | 3.5 | 12.2 | 0.00 | 0.00 | 0.00 | 63 | 1007.5 |
| 20260506044429 | 65 | 191 | 3.5 | 7.8 | 0.00 | 0.00 | 0.00 | 63 | 1007.6 |
| 20260506043924 | 65 | 238 | 2.6 | 7.8 | 0.00 | 0.00 | 0.00 | 63 | 1007.5 |
| 20260506043417 | 65 | 240 | 3.5 | 10.4 | 0.00 | 0.00 | 0.00 | 62 | 1007.5 |
| 20260506042911 | 65 | 161 | 3.5 | 10.4 | 0.00 | 0.00 | 0.00 | 62 | 1007.6 |
| 20260506041901 | 65 | 154 | 4.3 | 8.7 | 0.00 | 0.00 | 0.00 | 61 | 1007.6 |
| 20260506041355 | 65 | 237 | 3.5 | 10.4 | 0.00 | 0.00 | 0.00 | 61 | 1007.6 |
| 20260506040847 | 65 | 195 | 3.5 | 10.4 | 0.00 | 0.00 | 0.00 | 61 | 1007.6 |
| 20260506040343 | 66 | 197 | 4.3 | 9.6 | 0.00 | 0.00 | 0.00 | 60 | 1007.6 |
| 20260506035328 | 66 | 184 | 3.5 | 7.8 | 0.00 | 0.00 | 0.00 | 60 | 1007.5 |
| 20260506034825 | 66 | 222 | 3.5 | 9.6 | 0.00 | 0.00 | 0.00 | 59 | 1007.5 |
| 20260506034322 | 66 | 203 | 3.5 | 9.6 | 0.00 | 0.00 | 0.00 | 59 | 1007.6 |
| 20260506033820 | 66 | 189 | 4.3 | 9.6 | 0.00 | 0.00 | 0.00 | 59 | 1007.5 |
| 20260506032318 | 67 | 181 | 3.5 | 10.4 | 0.00 | 0.00 | 0.00 | 58 | 1007.5 |
| 20260506031817 | 67 | 182 | 3.5 | 8.7 | 0.00 | 0.00 | 0.00 | 58 | 1007.5 |
| 20260506031318 | 67 | 150 | 4.3 | 8.7 | 0.00 | 0.00 | 0.00 | 57 | 1007.6 |
| 20260506030821 | 67 | 291 | 4.3 | 8.7 | 0.00 | 0.00 | 0.00 | 57 | 1007.6 |
| 20260506030316 | 67 | 213 | 4.3 | 12.2 | 0.00 | 0.00 | 0.00 | 57 | 1007.5 |
| 20260506025317 | 67 | 158 | 3.5 | 9.6 | 0.00 | 0.00 | 0.00 | 57 | 1007.4 |
| 20260506024814 | 67 | 192 | 3.5 | 7.0 | 0.00 | 0.00 | 0.00 | 57 | 1007.5 |
| 20260506024316 | 67 | 197 | 3.5 | 7.8 | 0.00 | 0.00 | 0.00 | 57 | 1007.5 |
| 20260506023816 | 67 | 176 | 2.6 | 7.8 | 0.00 | 0.00 | 0.00 | 57 | 1007.5 |
| 20260506023317 | 67 | 188 | 2.6 | 6.1 | 0.00 | 0.00 | 0.00 | 57 | 1007.5 |
| 20260506022813 | 67 | 205 | 1.7 | 3.5 | 0.00 | 0.00 | 0.00 | 57 | 1007.6 |
| 20260506022311 | 68 | 178 | 1.7 | 3.5 | 0.00 | 0.00 | 0.00 | 57 | 1007.6 |
| 20260506021308 | 68 | 165 | 1.7 | 7.0 | 0.00 | 0.00 | 0.00 | 56 | 1007.7 |
| 20260506020810 | 68 | 149 | 1.7 | 7.0 | 0.00 | 0.00 | 0.00 | 56 | 1007.7 |
| 20260506020311 | 68 | 216 | 1.7 | 6.1 | 0.00 | 0.00 | 0.00 | 56 | 1007.7 |
| 20260506015810 | 68 | 210 | 1.7 | 8.7 | 0.00 | 0.00 | 0.00 | 56 | 1007.7 |
| 20260506015310 | 68 | 249 | 2.6 | 8.7 | 0.00 | 0.00 | 0.00 | 55 | 1007.7 |
| 20260506014308 | 68 | 174 | 1.7 | 6.1 | 0.00 | 0.00 | 0.00 | 55 | 1007.7 |
| 20260506013808 | 68 | 202 | 2.6 | 5.2 | 0.00 | 0.00 | 0.00 | 55 | 1007.7 |
| 20260506013309 | 68 | 207 | 2.6 | 6.1 | 0.00 | 0.00 | 0.00 | 55 | 1007.7 |
| 20260506012810 | 69 | 217 | 2.6 | 6.1 | 0.00 | 0.00 | 0.00 | 55 | 1007.7 |
| 20260506012310 | 69 | 199 | 2.6 | 9.6 | 0.00 | 0.00 | 0.00 | 54 | 1007.3 |
| 20260506011307 | 69 | 134 | 4.3 | 8.7 | 0.00 | 0.00 | 0.00 | 53 | 1006.8 |
| 20260506010801 | 69 | 221 | 4.3 | 10.4 | 0.00 | 0.00 | 0.00 | 52 | 1006.8 |
| 20260506010259 | 70 | 251 | 4.3 | 10.4 | 0.00 | 0.00 | 0.00 | 52 | 1006.6 |
| 20260506005300 | 70 | 174 | 3.5 | 7.8 | 0.00 | 0.00 | 0.00 | 52 | 1006.5 |
| 20260506004757 | 70 | 222 | 3.5 | 7.8 | 0.00 | 0.00 | 0.00 | 52 | 1006.4 |
| 20260506004258 | 70 | 193 | 3.5 | 9.6 | 0.00 | 0.00 | 0.00 | 51 | 1006.3 |
| 20260506003757 | 70 | 162 | 3.5 | 9.6 | 0.00 | 0.00 | 0.00 | 51 | 1006.2 |
| 20260506003256 | 70 | 139 | 3.5 | 7.0 | 0.00 | 0.00 | 0.00 | 51 | 1006.1 |
| 20260506002301 | 71 | 192 | 3.5 | 5.2 | 0.00 | 0.00 | 0.00 | 50 | 1005.8 |
| 20260506001756 | 71 | 136 | 2.6 | 5.2 | 0.00 | 0.00 | 0.00 | 50 | 1005.6 |
| 20260506001256 | 71 | 158 | 2.6 | 5.2 | 0.00 | 0.00 | 0.00 | 50 | 1005.4 |
| 20260506000802 | 72 | 207 | 2.6 | 5.2 | 0.00 | 0.00 | 0.00 | 49 | 1005.4 |
| 20260506000255 | 72 | 163 | 2.6 | 6.1 | 0.00 | 0.00 | 0.00 | 49 | 1005.4 |
| 20260505234752 | 73 | 232 | 3.5 | 6.1 | 0.00 | 0.00 | 0.00 | 48 | 1005.0 |
| 20260505234251 | 73 | 168 | 3.5 | 6.1 | 0.00 | 0.00 | 0.00 | 48 | 1005.0 |
| 20260505233753 | 73 | 169 | 3.5 | 7.8 | 0.00 | 0.00 | 0.00 | 48 | 1005.0 |
| 20260505232750 | 74 | 146 | 4.3 | 13.0 | 0.00 | 0.00 | 0.00 | 47 | 1004.8 |
| 20260505232250 | 74 | 113 | 5.2 | 13.9 | 0.00 | 0.00 | 0.00 | 47 | 1004.6 |
| 20260505231249 | 74 | 169 | 4.3 | 9.6 | 0.00 | 0.00 | 0.00 | 47 | 1004.6 |
| 20260505225749 | 75 | 169 | 4.3 | 8.7 | 0.00 | 0.00 | 0.00 | 45 | 1004.4 |
| 20260505225250 | 76 | 136 | 3.5 | 7.0 | 0.00 | 0.00 | 0.00 | 45 | 1004.3 |
| 20260505224749 | 76 | 144 | 3.5 | 7.0 | 0.00 | 0.00 | 0.00 | 45 | 1004.2 |
| 20260505224250 | 76 | 177 | 3.5 | 7.8 | 0.00 | 0.00 | 0.00 | 44 | 1004.1 |
| 20260505223751 | 76 | 152 | 2.6 | 9.6 | 0.00 | 0.00 | 0.00 | 44 | 1004.1 |
| 20260505223253 | 77 | 152 | 2.6 | 9.6 | 0.00 | 0.00 | 0.00 | 44 | 1003.9 |
| 20260505221748 | 77 | 134 | 5.2 | 10.4 | 0.00 | 0.00 | 0.00 | 42 | 1003.7 |
| 20260505221246 | 78 | 133 | 3.5 | 9.6 | 0.00 | 0.00 | 0.00 | 42 | 1003.8 |
| 20260505220747 | 78 | 153 | 2.6 | 7.0 | 0.00 | 0.00 | 0.00 | 42 | 1003.7 |
| 20260505220247 | 78 | 143 | 3.5 | 8.7 | 0.00 | 0.00 | 0.00 | 42 | 1003.5 |
| 20260505215246 | 78 | 180 | 3.5 | 7.0 | 0.00 | 0.00 | 0.00 | 42 | 1003.5 |
| 20260505214749 | 78 | 138 | 3.5 | 7.8 | 0.00 | 0.00 | 0.00 | 41 | 1003.4 |
| 20260505214244 | 79 | 135 | 3.5 | 7.8 | 0.00 | 0.00 | 0.00 | 40 | 1003.4 |
| 20260505213742 | 79 | 165 | 3.5 | 6.1 | 0.00 | 0.00 | 0.00 | 41 | 1003.4 |
| 20260505213244 | 79 | 164 | 2.6 | 7.8 | 0.00 | 0.00 | 0.00 | 40 | 1003.3 |
| 20260505212742 | 80 | 138 | 2.6 | 7.8 | 0.00 | 0.00 | 0.00 | 40 | 1003.2 |
| 20260505212242 | 80 | 140 | 5.2 | 13.0 | 0.00 | 0.00 | 0.00 | 39 | 1003.1 |
| 20260505211743 | 81 | 154 | 6.1 | 16.5 | 0.00 | 0.00 | 0.00 | 37 | 1003.1 |
| 20260505210742 | 81 | 197 | 5.2 | 11.3 | 0.00 | 0.00 | 0.00 | 37 | 1003.0 |
| 20260505210246 | 82 | 223 | 5.2 | 11.3 | 0.00 | 0.00 | 0.00 | 37 | 1003.0 |
| 20260505205739 | 82 | 138 | 5.2 | 9.6 | 0.00 | 0.00 | 0.00 | 36 | 1003.0 |
| 20260505205241 | 82 | 220 | 4.3 | 10.4 | 0.00 | 0.00 | 0.00 | 36 | 1002.9 |
| 20260505204740 | 82 | 155 | 6.1 | 16.5 | 0.00 | 0.00 | 0.00 | 35 | 1002.8 |
| 20260505204239 | 83 | 148 | 5.2 | 16.5 | 0.00 | 0.00 | 0.00 | 35 | 1002.7 |
| 20260505203741 | 83 | 141 | 6.1 | 14.8 | 0.00 | 0.00 | 0.00 | 35 | 1002.9 |
| 20260505203239 | 83 | 160 | 6.1 | 14.8 | 0.00 | 0.00 | 0.00 | 35 | 1003.0 |
| 20260505202739 | 83 | 166 | 5.2 | 11.3 | 0.00 | 0.00 | 0.00 | 35 | 1003.0 |
| 20260505201740 | 84 | 214 | 5.2 | 10.4 | 0.00 | 0.00 | 0.00 | 34 | 1003.1 |
| 20260505201235 | 84 | 194 | 4.3 | 10.4 | 0.00 | 0.00 | 0.00 | 35 | 1003.0 |
| 20260505200735 | 83 | 174 | 3.5 | 8.7 | 0.00 | 0.00 | 0.00 | 36 | 1003.0 |
| 20260505200236 | 83 | 167 | 3.5 | 15.6 | 0.00 | 0.00 | 0.00 | 36 | 1003.0 |
| 20260505195734 | 83 | 210 | 4.3 | 15.6 | 0.00 | 0.00 | 0.00 | 37 | 1003.0 |
| 20260505195235 | 83 | 201 | 4.3 | 13.9 | 0.00 | 0.00 | 0.00 | 37 | 1003.2 |
| 20260505194738 | 83 | 179 | 6.1 | 13.9 | 0.00 | 0.00 | 0.00 | 37 | 1003.1 |
| 20260505194235 | 83 | 165 | 5.2 | 13.9 | 0.00 | 0.00 | 0.00 | 36 | 1003.2 |
| 20260505193736 | 83 | 174 | 4.3 | 11.3 | 0.00 | 0.00 | 0.00 | 37 | 1003.0 |
| 20260505193237 | 83 | 138 | 4.3 | 11.3 | 0.00 | 0.00 | 0.00 | 36 | 1003.3 |
| 20260505192730 | 83 | 146 | 5.2 | 11.3 | 0.00 | 0.00 | 0.00 | 35 | 1003.3 |
| 20260505192230 | 83 | 157 | 5.2 | 14.8 | 0.00 | 0.00 | 0.00 | 35 | 1003.4 |
| 20260505191732 | 83 | 149 | 3.5 | 14.8 | 0.00 | 0.00 | 0.00 | 38 | 1003.5 |
| 20260505191232 | 82 | 155 | 3.5 | 9.6 | 0.00 | 0.00 | 0.00 | 40 | 1003.6 |
| 20260505190732 | 83 | 148 | 4.3 | 13.9 | 0.00 | 0.00 | 0.00 | 39 | 1003.7 |
| 20260505185734 | 82 | 213 | 5.2 | 13.0 | 0.00 | 0.00 | 0.00 | 38 | 1004.1 |
| 20260505184732 | 82 | 153 | 5.2 | 13.9 | 0.00 | 0.00 | 0.00 | 35 | 1003.9 |
| 20260505184227 | 82 | 149 | 6.1 | 13.9 | 0.00 | 0.00 | 0.00 | 36 | 1004.0 |
| 20260505183228 | 82 | 170 | 7.0 | 18.2 | 0.00 | 0.00 | 0.00 | 35 | 1004.3 |
| 20260505182228 | 83 | 243 | 5.2 | 13.9 | 0.00 | 0.00 | 0.00 | 35 | 1004.4 |
| 20260505181727 | 83 | 193 | 4.3 | 13.0 | 0.00 | 0.00 | 0.00 | 36 | 1004.4 |
| 20260505180728 | 83 | 166 | 6.1 | 17.4 | 0.00 | 0.00 | 0.00 | 36 | 1004.5 |
| 20260505180228 | 83 | 222 | 6.1 | 17.4 | 0.00 | 0.00 | 0.00 | 34 | 1004.5 |
| 20260505175721 | 83 | 231 | 6.1 | 13.0 | 0.00 | 0.00 | 0.00 | 36 | 1004.7 |
| 20260505175218 | 82 | 151 | 6.1 | 13.9 | 0.00 | 0.00 | 0.00 | 36 | 1004.6 |
| 20260505174727 | 83 | 235 | 6.1 | 13.9 | 0.00 | 0.00 | 0.00 | 35 | 1004.8 |
| 20260505174222 | 83 | 96 | 6.1 | 14.8 | 0.00 | 0.00 | 0.00 | 36 | 1004.7 |
| 20260505173218 | 82 | 182 | 5.2 | 12.2 | 0.00 | 0.00 | 0.00 | 36 | 1005.0 |
| 20260505172719 | 82 | 160 | 4.3 | 12.2 | 0.00 | 0.00 | 0.00 | 35 | 1005.2 |
| 20260505172217 | 82 | 178 | 4.3 | 11.3 | 0.00 | 0.00 | 0.00 | 36 | 1005.3 |
| 20260505171716 | 81 | 188 | 6.1 | 14.8 | 0.00 | 0.00 | 0.00 | 37 | 1005.5 |
| 20260505171215 | 81 | 141 | 5.2 | 14.8 | 0.00 | 0.00 | 0.00 | 37 | 1005.4 |
| 20260505170218 | 80 | 192 | 4.3 | 11.3 | 0.00 | 0.00 | 0.00 | 39 | 1005.7 |
| 20260505165715 | 80 | 186 | 5.2 | 13.0 | 0.00 | 0.00 | 0.00 | 38 | 1005.7 |
| 20260505165215 | 80 | 176 | 5.2 | 13.0 | 0.00 | 0.00 | 0.00 | 39 | 1005.8 |
| 20260505164714 | 80 | 201 | 5.2 | 10.4 | 0.00 | 0.00 | 0.00 | 40 | 1005.8 |
| 20260505164214 | 79 | 165 | 4.3 | 10.4 | 0.00 | 0.00 | 0.00 | 40 | 1006.0 |
| 20260505163715 | 79 | 236 | 4.3 | 10.4 | 0.00 | 0.00 | 0.00 | 41 | 1006.0 |
| 20260505163213 | 78 | 195 | 3.5 | 9.6 | 0.00 | 0.00 | 0.00 | 41 | 1006.2 |
| 20260505162713 | 78 | 152 | 4.3 | 8.7 | 0.00 | 0.00 | 0.00 | 43 | 1006.3 |
| 20260505162212 | 77 | 192 | 5.2 | 10.4 | 0.00 | 0.00 | 0.00 | 43 | 1006.6 |
| 20260505161710 | 77 | 169 | 5.2 | 10.4 | 0.00 | 0.00 | 0.00 | 43 | 1006.6 |
| 20260505161211 | 77 | 155 | 4.3 | 9.6 | 0.00 | 0.00 | 0.00 | 43 | 1006.9 |
| 20260505160709 | 76 | 168 | 4.3 | 11.3 | 0.00 | 0.00 | 0.00 | 44 | 1006.9 |
| 20260505160211 | 76 | 206 | 4.3 | 11.3 | 0.00 | 0.00 | 0.00 | 45 | 1007.1 |
| 20260505153203 | 74 | 214 | 4.3 | 9.6 | 0.00 | 0.00 | 0.00 | 47 | 1007.3 |
| 20260505152202 | 73 | 211 | 3.5 | 8.7 | 0.00 | 0.00 | 0.00 | 49 | 1007.4 |
| 20260505151656 | 73 | 224 | 3.5 | 7.8 | 0.00 | 0.00 | 0.00 | 50 | 1007.5 |
| 20260505151152 | 73 | 152 | 4.3 | 7.8 | 0.00 | 0.00 | 0.00 | 50 | 1007.5 |
| 20260505150653 | 72 | 150 | 4.3 | 10.4 | 0.00 | 0.00 | 0.00 | 50 | 1007.5 |
| 20260505150152 | 71 | 219 | 4.3 | 10.4 | 0.00 | 0.00 | 0.00 | 53 | 1007.6 |
| 20260505130140 | 66 | 135 | 3.5 | 9.6 | 0.00 | 0.00 | 0.00 | 58 | 1007.6 |
| 20260505124638 | 66 | 230 | 5.2 | 9.6 | 0.00 | 0.00 | 0.00 | 57 | 1007.7 |
| 20260505124139 | 65 | 224 | 4.3 | 13.0 | 0.00 | 0.00 | 0.00 | 58 | 1007.6 |
| 20260505123638 | 65 | 266 | 3.5 | 13.0 | 0.00 | 0.00 | 0.00 | 58 | 1007.8 |
| 20260505123133 | 65 | 196 | 4.3 | 9.6 | 0.00 | 0.00 | 0.00 | 59 | 1007.9 |
| 20260505122120 | 65 | 182 | 4.3 | 10.4 | 0.00 | 0.00 | 0.00 | 60 | 1007.7 |
| 20260505121615 | 64 | 223 | 4.3 | 10.4 | 0.00 | 0.00 | 0.00 | 60 | 1007.6 |
| 20260505121109 | 64 | 174 | 3.5 | 8.7 | 0.00 | 0.00 | 0.00 | 60 | 1007.5 |
| 20260505115552 | 62 | 175 | 3.5 | 7.0 | 0.00 | 0.00 | 0.00 | 63 | 1007.4 |
| 20260505115044 | 62 | 160 | 3.5 | 6.1 | 0.00 | 0.00 | 0.00 | 63 | 1007.6 |
| 20260505114539 | 62 | 202 | 3.5 | 8.7 | 0.00 | 0.00 | 0.00 | 64 | 1007.6 |
| 20260505113551 | 61 | 171 | 2.6 | 7.0 | 0.00 | 0.00 | 0.00 | 65 | 1007.6 |
| 20260505112539 | 60 | 260 | 3.5 | 7.0 | 0.00 | 0.00 | 0.00 | 66 | 1007.7 |
| 20260505112040 | 59 | 211 | 3.5 | 7.0 | 0.00 | 0.00 | 0.00 | 67 | 1007.7 |
| 20260505111539 | 59 | 163 | 2.6 | 7.0 | 0.00 | 0.00 | 0.00 | 68 | 1007.6 |
| 20260505111039 | 58 | 208 | 1.7 | 7.0 | 0.00 | 0.00 | 0.00 | 68 | 1007.7 |
| 20260505110539 | 58 | 211 | 2.6 | 5.2 | 0.00 | 0.00 | 0.00 | 69 | 1007.7 |
| 20260505102037 | 55 | 162 | 1.7 | 3.5 | 0.00 | 0.00 | 0.00 | 71 | 1007.7 |
| 20260505101531 | 55 | 181 | 0.9 | 2.6 | 0.00 | 0.00 | 0.00 | 71 | 1007.7 |
| 20260505101038 | 55 | 155 | 0.9 | 2.6 | 0.00 | 0.00 | 0.00 | 71 | 1007.7 |
| 20260505100519 | 55 | 196 | 0.9 | 2.6 | 0.00 | 0.00 | 0.00 | 71 | 1007.7 |
| 20260505100013 | 55 | 173 | 0.9 | 3.5 | 0.00 | 0.00 | 0.00 | 71 | 1007.6 |
| 20260505095507 | 55 | 166 | 1.7 | 3.5 | 0.00 | 0.00 | 0.00 | 71 | 1007.6 |
| 20260505095002 | 55 | 170 | 1.7 | 4.3 | 0.00 | 0.00 | 0.00 | 71 | 1007.6 |
| 20260505094456 | 55 | 165 | 0.9 | 4.3 | 0.00 | 0.00 | 0.00 | 71 | 1007.6 |
| 20260505093950 | 55 | 148 | 0.9 | 2.6 | 0.00 | 0.00 | 0.00 | 71 | 1007.7 |
| 20260505093445 | 55 | 163 | 0.9 | 3.5 | 0.00 | 0.00 | 0.00 | 70 | 1007.7 |
| 20260505092937 | 55 | 154 | 1.7 | 5.2 | 0.00 | 0.00 | 0.00 | 70 | 1007.7 |
| 20260505092430 | 55 | 166 | 1.7 | 5.2 | 0.00 | 0.00 | 0.00 | 70 | 1007.7 |
| 20260505091924 | 55 | 158 | 1.7 | 4.3 | 0.00 | 0.00 | 0.00 | 70 | 1007.7 |
| 20260505090913 | 55 | 169 | 1.7 | 3.5 | 0.00 | 0.00 | 0.00 | 69 | 1007.7 |
| 20260505085901 | 55 | 172 | 1.7 | 3.5 | 0.00 | 0.00 | 0.00 | 68 | 1007.7 |
| 20260505085354 | 55 | 171 | 1.7 | 3.5 | 0.00 | 0.00 | 0.00 | 68 | 1007.7 |
| 20260505084851 | 55 | 201 | 1.7 | 2.6 | 0.00 | 0.00 | 0.00 | 68 | 1007.8 |
| 20260505084345 | 55 | 172 | 0.9 | 2.6 | 0.00 | 0.00 | 0.00 | 68 | 1007.8 |
| 20260505083837 | 55 | 148 | 0.9 | 2.6 | 0.00 | 0.00 | 0.00 | 68 | 1007.8 |
| 20260505083332 | 55 | 165 | 0.9 | 2.6 | 0.00 | 0.00 | 0.00 | 68 | 1007.8 |
| 20260505082826 | 55 | 167 | 0.9 | 4.3 | 0.00 | 0.00 | 0.00 | 68 | 1007.8 |
| 20260505082322 | 55 | 186 | 0.9 | 4.3 | 0.00 | 0.00 | 0.00 | 68 | 1007.8 |
| 20260505081822 | 55 | 203 | 0.9 | 3.5 | 0.00 | 0.00 | 0.00 | 69 | 1007.8 |
| 20260505081321 | 55 | 177 | 0.9 | 3.5 | 0.00 | 0.00 | 0.00 | 69 | 1007.9 |
| 20260505080822 | 55 | 226 | 0.0 | 3.5 | 0.00 | 0.00 | 0.00 | 69 | 1008.0 |
| 20260505080321 | 55 | 169 | 0.0 | 2.6 | 0.00 | 0.00 | 0.00 | 69 | 1008.0 |
| 20260505075823 | 55 | 173 | 0.0 | 1.7 | 0.00 | 0.00 | 0.00 | 69 | 1008.0 |
| 20260505075321 | 55 | 150 | 0.0 | 0.9 | 0.00 | 0.00 | 0.00 | 68 | 1008.0 |
| 20260505074820 | 55 | 136 | 0.0 | 1.7 | 0.00 | 0.00 | 0.00 | 68 | 1008.1 |
| 20260505074321 | 55 | 174 | 0.0 | 1.7 | 0.00 | 0.00 | 0.00 | 68 | 1008.1 |
| 20260505073821 | 55 | 143 | 0.0 | 0.9 | 0.00 | 0.00 | 0.00 | 68 | 1008.1 |
| 20260505073322 | 55 | 162 | 0.0 | 1.7 | 0.00 | 0.00 | 0.00 | 67 | 1008.1 |
| 20260505072819 | 55 | 158 | 0.9 | 2.6 | 0.00 | 0.00 | 0.00 | 67 | 1008.1 |
| 20260505072320 | 55 | 225 | 0.9 | 2.6 | 0.00 | 0.00 | 0.00 | 67 | 1008.1 |
| 20260505071317 | 56 | 138 | 0.9 | 2.6 | 0.00 | 0.00 | 0.00 | 67 | 1008.2 |
| 20260505070815 | 55 | 150 | 0.0 | 3.5 | 0.00 | 0.00 | 0.00 | 67 | 1008.2 |
| 20260505070315 | 55 | 167 | 0.0 | 3.5 | 0.00 | 0.00 | 0.00 | 67 | 1008.1 |
| 20260505065311 | 56 | 219 | 0.0 | 1.7 | 0.00 | 0.00 | 0.00 | 66 | 1008.2 |
| 20260505064807 | 56 | 202 | 0.0 | 2.6 | 0.00 | 0.00 | 0.00 | 65 | 1008.2 |
| 20260505063755 | 56 | 210 | 1.7 | 5.2 | 0.00 | 0.00 | 0.00 | 64 | 1008.2 |
| 20260505063247 | 56 | 209 | 2.6 | 5.2 | 0.00 | 0.00 | 0.00 | 64 | 1008.2 |
| 20260505062743 | 57 | 221 | 2.6 | 5.2 | 0.00 | 0.00 | 0.00 | 64 | 1008.2 |
| 20260505062235 | 57 | 202 | 1.7 | 5.2 | 0.00 | 0.00 | 0.00 | 64 | 1008.2 |
| 20260505061731 | 57 | 182 | 2.6 | 5.2 | 0.00 | 0.00 | 0.00 | 63 | 1008.2 |
| 20260505061223 | 57 | 195 | 2.6 | 4.3 | 0.00 | 0.00 | 0.00 | 63 | 1008.2 |
| 20260505060719 | 57 | 216 | 2.6 | 5.2 | 0.00 | 0.00 | 0.00 | 63 | 1008.3 |
| 20260505060215 | 57 | 200 | 1.7 | 7.0 | 0.00 | 0.00 | 0.00 | 63 | 1008.2 |
| 20260505055716 | 57 | 244 | 1.7 | 7.0 | 0.00 | 0.00 | 0.00 | 62 | 1008.3 |